DELTA 1 DEB, 27720

Orbit data source: Space-Track

DELTA 1 DEB, 27720 is space debris in SSO originally from a launch on Fri, 22 Jan 1965 UTC launched from the Air Force Eastern Test Range (AFETR). Debris objects in space refer to the collection of defunct objects orbiting the Earth. Examples of debris include non-operational satellites, rocket bodies, and fragments generated from explosions, collisions, or faulty payload assembly.

Loading next visibility...
Identifier
27720, 1965-004E
Orbit
SSO
Country
Flag of USUS
Related business
Manufacturer
Unknown
Mission
Spacecraft
Bus & Motor
Unknown
Mass
Unknown
Launch date (UTC)
1965-01-22 (61 years ago)
Launch vehicle
Unknown
Launch site
Air Force Eastern Test Range (AFETR)
Object type
Payload
Rocket body
Debris
Shape & HBR
Unknown
Radar Cross Section
Small (<0.1 m²)

Expand to show TLE details & history
Last TLE update: 13 hours ago

TLE from 13 hours ago
0 DELTA 1 DEB
1 27720U 65004E   25258.76666545  .00000031  00000-0  64487-4 0  9997
2 27720  96.4820 273.1089 1166596 237.7658 110.5122 12.09200082482045
Epoch: 2025-09-15T18:23Z
TLE epoch observation values (Epoch: 2025-09-15T18:23:59.894Z)
Latitude
-0.0001°
Longitude
2.14275°
Altitude
2,059.963 km
Speed
6.693 km/s
True Right ascension
18h 12m 26s
True Declination
0° 00' 00"
Sunlit
Object was in daylight at epoch
Visualization orbit readout
Latitude
Unknown
Longitude
Unknown
Altitude
Unknown
Speed
Unknown
Apparent Right ascension
Unknown
Apparent Declination
Unknown
Sunlit
N/A
Visualization observer readout
Local Sidereal Time
23:55:52
Azimuth
Unknown
Elevation
Unknown
Doppler factor
Unknown
Orbital elements
Apogee altitude
2,572.311 km
Perigee altitude
702.17 km
Semi-major axis
8,015.377 km
Eccentricity
0.11666
Inclination
96.482°
RAAN
273.1089°
Arg. of periapsis
237.7658°
True anomaly
122.33913°
Mean anomaly
110.5122°
Eccentric anomaly
116.49433°
Mean motion
3.02453 °/min
Orbital period
119.03 mins
BSTAR
0.000064487
Loading maneuver chart data...
Computing Atmospheric mass density...
Loading historical data...
Loading historical data...
Loading historical data...
Loading historical data...
Loading historical data...
Loading historical data...
Loading historical data...
Other satellites on launch #4 in the year 1965 (1965-01-22 UTC)

Documentation

Showing up to 5 results
|